Location: Newark
(42.8481°N, 0.4872°E)
Time: 13:22:22
(UTC+00:00)

A-11 Canister half - Pass Details

Date: 03 November 2020
Orbit: 1525 x 1684 km, 47.3° (Epoch: 01 December)

Event Time Altitude Azimuth Distance (km) Brightness Sun altitude
Rises 12:02:02 0° 220° (SW) 4,850 12.4 31.7°
Reaches altitude 10° 12:05:17 10° 216° (SW) 3,845 12.2 31.6°
Maximum altitude 12:14:41 55° 142° (SE) 1,853 10.4 31.4°
Drops below altitude 10° 12:23:48 10° 68° (ENE) 3,738 10.8 31.1°
Sets 12:26:53 0° 64° (ENE) 4,708 11.2 30.9°
